Regional Weather Roundup
Issued by NWS

Home | Current Version | Previous Version | Text Only | Print | Product List | Glossary On
Versions: 1 2 3 4 5 6 7 8 9 10 11 12 13 14 15 16 17 18 19 20 21 22 23 24 25 26 27 28 29 30 31 32 33 34 35 36 37 38 39 40 41 42 43 44 45 46 47 48 49 50
000
ASUS43 KLSX 220459
RWRMO

WEATHER SUMMARY FOR MISSOURI
NATIONAL WEATHER SERVICE SPRINGFIELD MO
1100 PM CST SUN DEC 21 2014

NOTE: "FAIR" INDICATES FEW OR NO CLOUDS BELOW 12,000 FEET WITH NO
       SIGNIFICANT WEATHER AND/OR OBSTRUCTIONS TO VISIBILITY.
       CURRENT SKY AND/OR WEATHER CONDITIONS ARE NOT AVAILABLE FOR
       CHILLICOTHE AND FARMINGTON.

MOZ001>031-035>038-043-044-053-054-220600-
...NORTHERN AND WESTERN MISSOURI...

CITY           SKY/WX    TMP DP  RH WIND       PRES   REMARKS
KANSAS CTY INT CLOUDY    43  38  82 S16       29.75F
KANSAS C DTWN  CLOUDY    45  37  73 S10G21    29.77F
LEE`S SUMMIT   CLOUDY    42  37  82 SE10G20   29.78F
ST JOSEPH      CLOUDY    44  40  85 S13       29.75S
CHILLICOTHE      N/A     43  37  79 S9        29.82S
KIRKSVILLE     CLOUDY    40  37  89 SE14      29.84F

$$
MOZ066>068-077>081-088>096-101>105-220600-
...SOUTHWEST MISSOURI...

CITY           SKY/WX    TMP DP  RH WIND       PRES   REMARKS
SPRINGFIELD    CLOUDY    43  36  76 SE15      29.82S
JOPLIN         CLOUDY    45  39  79 S10       29.79F

$$
MOZ032>034-039>042-045>050-055>058-069>072-220600-
...CENTRAL MISSOURI...

CITY           SKY/WX    TMP DP  RH WIND       PRES   REMARKS
COLUMBIA       CLOUDY    41  34  76 SE13      29.86F
JEFFERSON CITY CLOUDY    42  34  73 SE8       29.88F
ROLLA          CLOUDY    39  32  76 SE10      29.86F
SEDALIA        CLOUDY    43  35  73 SE13      29.83F
OSAGE BEACH    CLOUDY    43  34  70 SE10      29.85F

$$
MOZ051-052-059>065-220600-
...EAST CENTRAL MISSOURI...

CITY           SKY/WX    TMP DP  RH WIND       PRES   REMARKS
ST LOUIS INTL  CLOUDY    44  31  60 SE10      29.95F
SPIRIT OF STL  CLOUDY    43  32  65 SE5       29.93F
ST CHARLES     CLOUDY    41  33  73 SE9       29.94F

$$
MOZ072>076-082>087-097>100-106>115-220600-
...SOUTH CENTRAL AND SOUTHEAST MISSOURI...

CITY           SKY/WX    TMP DP  RH WIND       PRES   REMARKS
CAPE GIRARDEAU CLOUDY    42  33  70 SE8       29.96F
FARMINGTON     CLOUDY    41  34  75 E6        29.94F
POPLAR BLUFF   CLOUDY    41  34  76 NE5       29.94F
WEST PLAINS    CLOUDY    40  33  76 SE7       29.89F

$$



USA.gov is the U.S. government's official web portal to all federal, state and local government web resources and services.